Погода в Портовом

Россия / Республика Крым     45°50′53″N   33°29′10″E
темп.,
°C
ветер,
м/с
пор.,
м/с
влажн.,
%
обл.,
%
осадки,
мм/ч
давл.,
гПа
погр.,
м
21 апреля, ср
ср2100:00+9зюз71284100 0.0 1012379
03:00+8юз41088100 0.0 1013211
06:00+8юз488597 0.0 1014153
09:00+13зюз5665100 0.1 1016565
12:00+15з565763 1.0 10161541
15:00+13з566858 2.2 1017878
18:00+13зюз46715 1.1 1018781
21:00+8ююз48925 1.1 1019179
22 апреля, чт
чт2200:00+8ююз47943 0.0 1020137
03:00+7ююз36945 0.0 1020112
06:00+7ююз37950 0.0 1021122
09:00+13юз45730 0.0 1022649
12:00+16юз555513 0.1 10221495
15:00+16юз66578 1.5 10221439
18:00+14юз67660 0.8 1022750
21:00+9ююз48870 0.8 1022169
23 апреля, пт
пт2300:00+9ююз510880 0.0 1022204
03:00+8ююз511890 0.0 1022206
06:00+8ю4990100 0.0 1021170
09:00+13ююз6964100 0.0 1021531
12:00+17ююз784451 0.0 10201273
15:00+17ююз7946100 0.0 10191238
18:00+13юз61267100 0.0 1018564
21:00+11юз71370100 0.0 1018438
24 апреля, сб
сб2400:00+9юз6128784 0.0 1018428
03:00+9з479557 0.0 1018335
06:00+8сз368753 0.0 1019334
09:00+9ссз45650 0.0 1020645
12:00+12ссз44490 0.0 10211112
15:00+13зсз56484 0.0 10211291
18:00+10з676499 0.0 1021754
21:00+7з4883100 0.0 1022189
25 апреля, вс
вс2500:00+7з3383100 0.0 102260
03:00+6ссз3376100 0.0 102145
06:00+6с2265100 0.0 102125
09:00+9с345299 0.0 1021623
12:00+11с4440100 0.0 10211011
15:00+12с3336100 0.0 10201099
18:00+12ссз1140100 0.0 1019631
21:00+7з225510 0.0 102018